High Desert Yearling Classic - Jackpot Nv 40 Miles, 20 Groups

Station: 40 Miles - T Race

Distance: 40 Miles    

Release: 04-May-2021 07:45

Weather Release:    Arrival:

Wind at Release:     Wind at Arrival:

Temp at Release: °    Temp at Arrival: °

Lofts: 115

Birds: 529

Clocked: 455

Good Luck to Everyone!
Drops Pos Breeder Pigeon Name Color Sex Ent Arrival Speed To Win Elg Pd
1 Hp Loft - CA 3215-AU20-JEDD BB H 1 08:51:51.07 1053.086 00:00:00 Yes
2 Jones Boys - UT 2424-AU20-SLI 7140-1095 SLT H 1 08:51:53.34 1052.490 00:00:02 Yes
3 Team Elite - IL 0840-AU20-ELIT BB H 1 08:51:55.28 1051.981 00:00:04 Yes
4 Josjim Loft - CA 20167-AU20-LAKE BBWF H 1 08:52:58.61 1035.647 00:01:08 Yes
5 Team Powerstroke - UT 0628-AU20-PS BC H 1 08:52:59.49 1035.424 00:01:08 Yes
6 Scott/Carol Team - UT 0328-AU20-RW BB H 1 08:53:04.05 1034.267 00:01:13 Yes
7 Valhalla Loft - CA 2043-AU20-WSJ BBWF H 1 08:53:07.23 1033.463 00:01:16 Yes
8 Hewitt-Ireneo - ID 6669-AU20-JEDD BB H 1 08:53:07.47 1033.402 00:01:16 Yes
9 Nick & Sons - WA 58277-AU20-ARPU BC H 1 08:53:09.00 1033.015 00:01:18 Yes
10 Xfactord - OK 4328-AU20-ARPU Xena BB H 1 08:53:10.52 1032.632 00:01:19 Yes
11 Chick Clayton - ID 0232-AU20-IDA BBSP H 1 08:53:12.04 1032.248 00:01:21 Yes
12 Mile High - CO 2060-AU20-MH Navajo war chief BB H 1 08:53:12.64 1032.097 00:01:22 Yes
13 VicstromLoft - UT 2094-AU20-WICK WICK 94 BCSP C 1 08:53:25.30 1028.914 00:01:34 Yes
14 Silver Dollar Loft - CO 0089-AU20-SDL BB H 1 08:53:25.87 1028.771 00:01:35 Yes
15 Dads Loft - CA 35833-AU20-AA BC H 1 08:54:02.80 1019.600 00:02:12 Yes
16 Stella Loft - TX 14062-AU20-JEDD BC H 1 08:54:05.33 1018.978 00:02:14 Yes
17 208Lofts - ID 0147-AU20-208 81184/9283 BC H 1 08:56:16.78 987.659 00:04:26 Yes
18 Sam Haslem - UT 0171-AU20-SAM BB H 1 08:56:59.58 977.873 00:05:09 Yes
19 New Year Loft - PA 2060-AU20-NWYR Ya Hoo Dee PBB H 1 08:56:59.83 977.816 00:05:09 Yes
20 Nick & Sons - WA 58311-AU20-ARPU BB H 2 08:57:01.51 977.436 00:05:10 Yes
21 Chick Clayton - ID 0209-AU20-IDA BC H 2 08:57:18.03 973.714 00:05:27 Yes
22 Gardocky Team - CA 0372-AU20-HAY BC H 1 08:57:21.92 972.842 00:05:31 Yes
23 Kfly Racing Pigeon Loft - ID 2058-AU20-KFLY Konpea X Classic Eagle BBSP H 1 08:57:22.47 972.718 00:05:31 Yes
24 Ordonez Loft - CA 12782-AU20-JEDD BBSP H 1 08:57:30.66 970.887 00:05:40 Yes
25 Kfly Racing Pigeon Loft - ID 2057-AU20-KFLY Doc Bar X Royal Boon 57 FADE H 2 08:58:30.48 957.719 00:06:39 Yes
26 Transilvania Loft - NV 0293-AU20-CFL BB H 1 08:58:44.32 954.723 00:06:53 Yes
27 Paul Meyer - WA 0801-AU20-TCW BB H 1 08:58:44.37 954.712 00:06:53 Yes
28 Silver Dollar Loft - CO 20155-AU20-FH BCSP H 2 08:58:46.39 954.277 00:06:55 Yes
29 Hess & Christopher - UT 20168-AU20-GS BB H 1 09:00:57.61 926.802 00:09:07 Yes
30 Team Elite - IL 0823-AU20-ELIT BC H 2 09:01:00.64 926.186 00:09:10 Yes
31 Emmalyn & Carelyn Loft - CA 66590-AU20-ARPU ~ CEYX 66590 ~ BC H 1 09:01:14.31 923.418 00:09:23 Yes
32 Kastle Loft - KY 2084-AU20-KAST Kastle Longshot BBWF H 1 09:01:15.31 923.216 00:09:24 Yes
33 Vipermann Loft - KS 0531-AU20-TOP BB H 1 09:01:16.20 923.037 00:09:25 Yes
34 Prout's Loft - CA 0483-AU20-PRT Aviator/ Zion BB H 1 09:02:21.13 910.123 00:10:30 Yes
35 Bob Bostwick - CA 0037-AU20-COCO BB H 1 09:02:23.34 909.690 00:10:32 Yes
36 Silver Dollar Loft - CO 0058-AU20-SDL SPL H 3 09:02:24.48 909.467 00:10:33 Yes
37 Mike Beam - KS 0817-AU20-TOP BB C 1 09:02:40.62 906.317 00:10:50 Yes
38 A.D.S Hilltop Family Loft - NJ 78918-AU20-ARPU BCWF H 1 09:02:42.79 905.895 00:10:52 Yes
39 Utley Lofts - ID 0780-AU20-IDA BC H 1 09:02:44.95 905.476 00:10:54 Yes
40 Marian Taloi - OR 30288-AU20-JEDD BCWF C 1 09:02:48.07 904.871 00:10:57 Yes
41 San Pancho Loft - UT 2293-AU20-WFA BBWF H 1 09:03:08.18 900.989 00:11:17 Yes
42 Warbird Loft - KS 27710-AU20-AA BC H 1 09:03:10.24 900.594 00:11:19 Yes
43 Stella Loft - TX 40009-AU20-AA BB H 2 09:03:21.53 898.431 00:11:30 Yes
44 Kfly Racing Pigeon Loft - ID 2053-AU20-KFLY Dark Bolt X Cl. Eagle 53 BB H 3 09:03:22.76 898.196 00:11:32 Yes
45 Utley Lofts - ID 0778-AU20-IDA BC H 2 09:03:24.32 897.898 00:11:33 Yes
46 Paynter Loft - ID 1165-AU20-WII BB C 1 09:03:26.30 897.520 00:11:35 Yes
47 Peter Krieg - CA 3404-AU20-CHP BB C 1 09:03:28.19 897.160 00:11:37 Yes
48 L & L Breeding Station - WA 0253-AU20-LL Diamond Lil’ BB C 1 09:03:28.52 897.097 00:11:37 Yes
49 Wise Loft - IL 0096-AU20-WISE BBWF H 1 09:03:29.36 896.937 00:11:38 Yes
50 Callahan Loft - MO 35458-AU20-AA BB C 1 09:03:29.71 896.871 00:11:39 Yes
51 Cloux Loft - CO 20727-AU20-FH BC C 1 09:03:46.74 893.639 00:11:56 Yes
52 Circle C Lofts - UT 34687-AU20-JEDD BC H 1 09:04:01.48 890.861 00:12:10 Yes
53 Kfly Racing Pigeon Loft - ID 2063-AU20-KFLY Triple Stichel BCSP H 4 09:04:43.84 882.973 00:12:53 Yes
54 Xfactord - OK 4342-AU20-ARPU Foxy DC H 2 09:04:46.38 882.504 00:12:55 Missing
55 Keyways - ID 0069-AU20-KW 1306X4115 BB H 1 09:04:55.14 880.892 00:13:04 Yes
56 Keyways - ID 0071-AU20-KW 389 x 862 BC C 2 09:04:55.62 880.804 00:13:05 Yes
57 Scott/Carol Team - UT 0321-AU20-RW SLT H 2 09:05:02.44 879.553 00:13:11 Yes
58 Vipermann Loft - KS 0891-AU20-TOP BGRZ H 2 09:05:04.77 879.126 00:13:14 Yes
59 Perfection Loft - KS 13025-AU20-AA BB H 1 09:05:06.85 878.746 00:13:16 Yes
60 Cloux Loft - CO 20781-AU20-FH RCWF H 2 09:05:09.52 878.258 00:13:18 Yes
61 Team Powerstroke - UT 0622-AU20-PS BB C 2 09:05:19.41 876.456 00:13:28 Yes
62 Circle C Lofts - UT 0166-AU20-SAM BBPI C 2 09:05:22.25 875.940 00:13:31 Yes
63 Cheer Flyer Loft - ID 0258-AU20-IDA BBSP H 1 09:05:27.89 874.916 00:13:37 Yes
64 San Pancho Loft - UT 2294-AU20-WFA BB H 2 09:05:31.56 874.252 00:13:40 Yes
65 2nd Chance Loft - ID 0216-AU20-RMR 486X458 BB C 1 09:05:32.52 874.078 00:13:41 Yes
66 Lucky Luke - ID 16854-AU20-AA BB H 1 09:05:34.04 873.803 00:13:43 Yes
67 Xfactord - OK 4338-AU20-ARPU Max LC H 3 09:05:42.59 872.261 00:13:52 Yes
68 Carini / Codd - OR 0017-AU20-CODD BC H 1 09:05:52.53 870.474 00:14:01 Yes
69 Papas Loft - ID 0253-AU20-PAPA BB H 1 09:05:54.37 870.144 00:14:03 Yes
70 Mike Beam - KS 0814-AU20-TOP BB C 2 09:05:59.94 869.147 00:14:09 Yes
71 L & L - PA 0374-IF20-PGC BB H 1 09:06:02.60 868.671 00:14:12 Yes
72 Jones Boys - UT 2430-AU20-SLI 637-252* BCSP H 2 09:06:03.68 868.478 00:14:13 Yes
73 Transilvania Loft - NV 39695-AU20-JEDD BB H 2 09:06:05.74 868.111 00:14:15 Yes
74 Hp Loft - CA 3212-AU20-JEDD BB H 2 09:06:06.43 867.987 00:14:15 Yes
75 Perfection Loft - KS 13022-AU20-AA BB C 2 09:06:09.56 867.430 00:14:18 Yes
76 Circle C Lofts - UT 0367-AU20-DWI BB H 3 09:06:20.45 865.494 00:14:29 Yes
77 Circle C Lofts - UT 0369-AU20-DWI BB C 4 09:06:23.30 864.989 00:14:32 Yes
78 San Pancho Loft - UT 2292-AU20-WFA BB H 3 09:06:26.60 864.405 00:14:36 Yes
79 Racing Pigeon Mall - WA 1092-AU20-RPM BCWF C 1 09:06:29.71 863.855 00:14:39 Yes
80 Carini / Codd - OR 2046-AU20-CARI BB H 2 09:06:31.32 863.571 00:14:40 Yes
81 PNWC - ID 0212-IF20-PNWC “PAIR 11” BBWF H 1 09:06:34.90 862.939 00:14:44 Yes
82 Tuna Family Loft - CO 0100-AU20-TFL La azulita BB H 1 09:06:35.22 862.883 00:14:44 Yes
83 New Year Loft - PA 2082-AU20-NWYR Wasted day's BC C 2 09:06:38.23 862.352 00:14:47 Yes
84 Chick Clayton - ID 0210-AU20-IDA BC H 3 09:06:49.03 860.455 00:14:58 Yes
85 Callahan Loft - MO 35460-AU20-AA BB C 2 09:06:52.71 859.811 00:15:02 Yes
86 New Year Loft - PA 2084-AU20-NWYR Blue Bird BB C 3 09:06:59.44 858.634 00:15:08 Yes
87 Flyhome Loft - KY 2072-AU20-FLYH BCWF H 1 09:07:01.87 858.210 00:15:11 Missing
88 Transilvania Loft - NV 39696-AU20-JEDD BBWF H 3 09:07:32.79 852.853 00:15:42 Yes
89 Lazy A C Loft - IN 0879-AU20-LAZY BSP H 1 09:07:46.45 850.507 00:15:55 Yes
90 Team Elite - IL 0838-AU20-ELIT BB H 3 09:07:56.97 848.709 00:16:06 Missing
91 Utley Lofts - ID 0783-AU20-IDA BC H 3 09:08:00.35 848.133 00:16:09 Yes
92 Team Powerstroke - UT 0632-AU20-PS BBWF H 3 09:08:00.72 848.070 00:16:10 Yes
93 3 Stars & A Sun - TX 0443-AU20-3SS BCWF C 1 09:08:01.23 847.983 00:16:10 Yes
94 Nick & Sons - WA 58304-AU20-ARPU BBWF H 3 09:08:04.81 847.374 00:16:14 Yes
95 Danny Lum - HI 0446-IF20-FSC BB C 1 09:08:05.49 847.259 00:16:14 Yes
96 Nick & Sons - WA 58300-AU20-ARPU BB H 4 09:08:09.64 846.554 00:16:19 Yes
97 Flying Tigerz - MN 4819-AU20-VK GRIZ C 1 09:08:11.53 846.234 00:16:20 Yes
98 Hewitt-Ireneo - ID 4754-AU20-JEDD DC C 2 09:08:12.86 846.008 00:16:22 Yes
99 Hewitt-Ireneo - ID 4752-AU20-JEDD BB C 3 09:08:13.74 845.859 00:16:23 Yes
100 Circle C Lofts - UT 0366-AU20-DWI BCWF H 5 09:08:14.43 845.742 00:16:23 Yes

There are 455 bird records

Note: These Race Results are unofficial and subject to change until verified by the Race Committee and declared final.